Tracking 29892 objects as of 21-Nov-2024
HD Live streaming from Space Station
objects crossing your sky now

COSMOS 2541

Track COSMOS 2541 now!


NORAD ID: 44552
Int'l Code: 2019-065A
Perigee: 2,789.3 km
Apogee: 37,577.7 km
Inclination: 62.8 °
Period: 717.7 minutes
Semi major axis: 26554 km
RCS: Unknown
Launch date: September 26, 2019
Source: Commonwealth of Independent States (former USSR) (CIS)
Launch site: PLESETSK MISSILE AND SPACE COMPLEX (PKMTR)
Your satellite tracking list
Your tracking list is empty




NASA's NSSDC Master Catalog

Two Line Element Set (TLE):
1 44552U 19065A   24325.51519429 -.00000198  00000-0  00000+0 0  9991
2 44552  62.7525 210.3192 6550383 272.6575  19.7048  2.00630225 37741
Source of the keplerian elements: AFSPC